MORDOVIA-IOT (RS50S)

Last updated on Mon Sep 15 2025 00:03:09 GMT+0000 (Coordinated Universal Time)

1 61765U 24199AG 25257.28109235 .00037783 00000+0 69729-3 0 9994 2 61765 97.3349 128.4121 0008914 165.1818 194.9696 15.48972314 91966
UTC large
Height (km)
Speed (km/s)
/
Latitude / Longitude
Inclination (degrees)
Orbital Period (minutes)
Azimuth
Elevation
Range (km)
Doppler Factor

Next 0 passes for location: London (51.5072 / 0.1276)

Sorry there are no passes over London.